CW6261 Weather Reports


Display with metric or nautical units.
time (UTC)temp
F
wind
direction
speed
MPH
gust
MPH
rain 1hr
in
rain 24hr
in
rain mn
in
humidity
%
barometer
mb
20260508215702 79 135 1.0 2.0 0.00 0.00 0.00 69 100.8
20260508214702 79 239 2.0 3.0 0.00 0.00 0.00 70 100.8
20260508214202 79 189 6.0 6.0 0.00 0.00 0.00 70 100.8
20260508213702 77 216 1.0 2.0 0.00 0.00 0.00 71 100.8
20260508213202 77 193 2.0 3.0 0.00 0.00 0.00 72 100.9
20260508212702 77 109 1.0 2.0 0.00 0.00 0.00 72 100.9
20260508212202 78 198 0.0 3.0 0.00 0.00 0.00 70 100.9
20260508211702 79 211 2.0 2.0 0.00 0.00 0.00 70 101.0
20260508211203 78 115 2.0 2.0 0.00 0.00 0.00 70 101.0
20260508210702 77 154 0.0 2.0 0.00 0.00 0.00 70 101.0
20260508210202 77 102 1.0 3.0 0.00 0.00 0.00 72 100.9
20260508205202 76 243 1.0 3.0 0.00 0.00 0.00 72 100.9
20260508204702 76 191 3.0 4.0 0.00 0.00 0.00 73 100.9
20260508204202 77 133 0.0 2.0 0.00 0.00 0.00 70 100.9
20260508203703 77 64 2.0 3.0 0.00 0.00 0.00 70 100.9
20260508203201 76 129 0.0 2.0 0.00 0.00 0.00 70 101.0
20260508202702 76 345 1.0 2.0 0.00 0.00 0.00 71 101.0
20260508202202 75 17 1.0 3.0 0.00 0.00 0.00 71 101.0
20260508201202 75 41 2.0 4.0 0.00 0.00 0.00 72 101.0
20260508200702 74 75 1.0 2.0 0.00 0.00 0.00 74 101.0
20260508200202 74 170 0.0 1.0 0.00 0.00 0.00 74 101.0
20260508195703 75 87 0.0 1.0 0.00 0.00 0.00 73 101.0
20260508195202 75 157 2.0 2.0 0.00 0.00 0.00 72 101.0
20260508194702 75 297 0.0 2.0 0.00 0.00 0.00 72 101.0
20260508194203 76 168 0.0 4.0 0.00 0.00 0.00 71 101.0
20260508193702 76 142 0.0 1.0 0.00 0.00 0.00 70 101.0
20260508193202 77 20 1.0 3.0 0.00 0.00 0.00 69 101.0
20260508192702 75 103 0.0 1.0 0.00 0.00 0.00 70 101.0
20260508191703 75 177 2.0 5.0 0.00 0.00 0.00 71 101.0
20260508190702 75 140 1.0 2.0 0.00 0.00 0.00 69 101.0
20260508190203 76 143 1.0 6.0 0.00 0.00 0.00 68 101.0
20260508185702 74 310 1.0 3.0 0.00 0.00 0.00 68 101.0
20260508185202 76 195 2.0 4.0 0.00 0.00 0.00 68 101.0
20260508184702 76 118 1.0 5.0 0.00 0.00 0.00 68 101.0
20260508184202 77 17 1.0 5.0 0.00 0.00 0.00 67 101.0
20260508183702 75 218 0.0 2.0 0.00 0.00 0.00 68 101.0
20260508183202 75 96 1.0 2.0 0.00 0.00 0.00 66 101.1
20260508182702 75 214 0.0 3.0 0.00 0.00 0.00 67 101.1
20260508182203 74 62 1.0 2.0 0.00 0.00 0.00 70 101.1
20260508181702 74 10 2.0 2.0 0.00 0.00 0.00 70 101.1
20260508181202 73 320 0.0 4.0 0.00 0.00 0.00 70 101.1
20260508180703 73 11 2.0 3.0 0.00 0.00 0.00 70 101.1
20260508180202 73 137 1.0 4.0 0.00 0.00 0.00 69 101.1
20260508175702 73 89 0.0 4.0 0.00 0.00 0.00 70 101.1
20260508175202 72 36 2.0 2.0 0.00 0.00 0.00 70 101.1
20260508174202 72 238 0.0 2.0 0.00 0.00 0.00 70 101.1
20260508173701 71 26 1.0 2.0 0.00 0.00 0.00 72 101.1
20260508173202 70 129 1.0 3.0 0.00 0.00 0.00 74 101.1
20260508172202 70 40 2.0 2.0 0.00 0.00 0.00 74 101.1
20260508171702 69 101 2.0 2.0 0.00 0.00 0.00 74 101.1
20260508171202 68 22 3.0 3.0 0.00 0.00 0.00 76 101.1
20260508165703 68 96 1.0 2.0 0.00 0.00 0.00 76 101.2
20260508165202 67 65 1.0 4.0 0.00 0.00 0.00 76 101.2
20260508164703 68 349 1.0 2.0 0.00 0.00 0.00 76 101.2
20260508164201 68 33 0.0 2.0 0.00 0.00 0.00 75 101.2
20260508163201 68 26 2.0 3.0 0.00 0.00 0.00 77 101.2
20260508162703 67 342 1.0 2.0 0.00 0.00 0.00 77 101.2
20260508161702 68 60 2.0 3.0 0.00 0.00 0.00 75 101.2
20260508161202 67 198 2.0 2.0 0.00 0.00 0.00 75 101.2
20260508160702 67 260 1.0 1.0 0.00 0.00 0.00 76 101.2
20260508160203 67 285 0.0 2.0 0.00 0.00 0.00 75 101.2
20260508155702 66 248 1.0 2.0 0.00 0.00 0.00 77 101.2
20260508155202 66 269 0.0 2.0 0.00 0.00 0.00 77 101.2
20260508154702 66 230 0.0 1.0 0.00 0.00 0.00 76 101.2
20260508153702 66 224 0.0 2.0 0.00 0.00 0.00 78 101.2
20260508153202 66 240 0.0 2.0 0.00 0.00 0.00 77 101.2
20260508152702 66 144 0.0 3.0 0.00 0.00 0.00 77 101.2
20260508152202 64 131 1.0 3.0 0.00 0.00 0.00 78 101.2
20260508151703 65 141 0.0 2.0 0.00 0.00 0.00 78 101.2
20260508151201 65 158 1.0 1.0 0.00 0.00 0.00 78 101.2
20260508150702 65 262 1.0 2.0 0.00 0.00 0.00 78 101.2
20260508145702 65 63 0.0 2.0 0.00 0.00 0.00 78 101.2
20260508145202 64 75 0.0 2.0 0.00 0.00 0.00 79 101.2
20260508144704 64 23 0.0 1.0 0.00 0.00 0.00 80 101.2
20260508144202 64 79 1.0 2.0 0.00 0.00 0.00 79 101.2
20260508143702 64 128 0.0 2.0 0.00 0.00 0.00 78 101.2
20260508143202 64 133 0.0 2.0 0.00 0.00 0.00 78 101.2
20260508142702 64 94 2.0 2.0 0.00 0.00 0.00 77 101.2
20260508142202 64 28 1.0 4.0 0.00 0.00 0.00 78 101.2
20260508141703 63 88 1.0 1.0 0.00 0.00 0.00 79 101.2
20260508140702 63 40 2.0 4.0 0.00 0.00 0.00 79 101.2
20260508140202 64 108 3.0 4.0 0.00 0.00 0.00 79 101.3
20260508135202 62 156 1.0 2.0 0.00 0.00 0.00 81 101.3
20260508134702 63 175 3.0 3.0 0.00 0.00 0.00 80 101.3
20260508134203 62 107 1.0 3.0 0.00 0.00 0.00 82 101.3
20260508133703 62 324 0.0 3.0 0.00 0.00 0.00 82 101.3
20260508132702 61 89 0.0 3.0 0.00 0.00 0.00 83 101.3
20260508132202 61 201 0.0 2.0 0.00 0.00 0.00 82 101.3
20260508131702 61 76 1.0 2.0 0.00 0.00 0.00 82 101.3
20260508131202 61 231 1.0 2.0 0.00 0.00 0.00 82 101.3
20260508130703 61 113 0.0 2.0 0.00 0.00 0.00 83 101.3
20260508130202 61 112 2.0 2.0 0.00 0.00 0.00 83 101.3
20260508125703 61 124 1.0 2.0 0.00 0.00 0.00 83 101.3
20260508125202 61 195 0.0 2.0 0.00 0.00 0.00 83 101.3
20260508124202 61 274 0.0 2.0 0.00 0.00 0.00 83 101.3
20260508123703 61 127 1.0 3.0 0.00 0.00 0.00 83 101.3
20260508123202 60 86 1.0 4.0 0.00 0.00 0.00 84 101.3
20260508122702 61 106 1.0 3.0 0.00 0.00 0.00 83 101.3
20260508122202 61 128 1.0 2.0 0.00 0.00 0.00 83 101.3
20260508121702 60 101 1.0 2.0 0.00 0.00 0.00 83 101.3
20260508121203 60 87 1.0 3.0 0.00 0.00 0.00 83 101.3
20260508120702 60 10 1.0 2.0 0.00 0.00 0.00 84 101.3
20260508120203 60 136 1.0 2.0 0.00 0.00 0.00 84 101.3
20260508115702 60 73 2.0 2.0 0.00 0.00 0.00 84 101.3
20260508115202 60 147 0.0 1.0 0.00 0.00 0.00 84 101.3
20260508114702 60 140 0.0 2.0 0.00 0.00 0.00 84 101.3
20260508114202 60 47 2.0 7.0 0.00 0.00 0.00 84 101.3
20260508113702 60 36 4.0 4.0 0.00 0.00 0.00 84 101.3
20260508113202 60 86 2.0 3.0 0.00 0.00 0.00 84 101.3
20260508112703 60 54 1.0 2.0 0.00 0.00 0.00 84 101.3
20260508112202 60 101 0.0 2.0 0.00 0.00 0.00 84 101.3
20260508111702 60 54 3.0 5.0 0.00 0.00 0.00 84 101.3
20260508111202 60 44 1.0 3.0 0.00 0.00 0.00 84 101.3
20260508110704 60 49 4.0 5.0 0.00 0.00 0.00 84 101.3
20260508105703 60 54 1.0 9.0 0.00 0.00 0.00 84 101.3
20260508105202 60 48 2.0 6.0 0.00 0.00 0.00 84 101.3
20260508104702 60 37 5.0 5.0 0.00 0.00 0.00 84 101.3
20260508104202 60 151 2.0 4.0 0.00 0.00 0.00 84 101.3
20260508103702 60 56 2.0 4.0 0.00 0.00 0.00 84 101.3
20260508103202 60 63 2.0 4.0 0.00 0.00 0.00 85 101.3
20260508102702 60 69 1.0 7.0 0.00 0.00 0.00 85 101.3
20260508102202 60 70 2.0 3.0 0.00 0.00 0.00 85 101.3
20260508101702 60 45 2.0 4.0 0.00 0.00 0.00 84 101.3
20260508101203 60 5 1.0 4.0 0.00 0.00 0.00 84 101.3
20260508100702 60 355 3.0 5.0 0.00 0.00 0.00 83 101.3
20260508100202 61 72 0.0 4.0 0.00 0.00 0.00 82 101.3
20260508095702 60 61 4.0 5.0 0.00 0.00 0.00 82 101.3
20260508094202 60 114 1.0 4.0 0.00 0.00 0.00 82 101.3
20260508093702 60 200 1.0 3.0 0.00 0.00 0.00 82 101.3
20260508093202 60 87 1.0 3.0 0.00 0.00 0.00 82 101.3
20260508092702 60 345 2.0 4.0 0.00 0.00 0.00 82 101.3
20260508092203 60 55 2.0 3.0 0.00 0.00 0.00 82 101.3
20260508091702 60 345 1.0 3.0 0.00 0.00 0.00 83 101.3
20260508091202 60 58 3.0 3.0 0.00 0.00 0.00 82 101.3
20260508090202 60 79 1.0 2.0 0.00 0.00 0.00 82 101.3
20260508085202 60 233 2.0 2.0 0.00 0.00 0.00 82 101.3
20260508084203 60 62 0.0 1.0 0.00 0.00 0.00 82 101.3
20260508083202 60 44 0.0 1.0 0.00 0.00 0.00 82 101.3
20260508082702 60 30 2.0 2.0 0.00 0.00 0.00 82 101.3
20260508082202 60 41 1.0 1.0 0.00 0.00 0.00 82 101.3
20260508081702 60 60 1.0 1.0 0.00 0.00 0.00 82 101.3
20260508081203 60 269 0.0 0.0 0.00 0.00 0.00 83 101.3
20260508080703 60 66 0.0 1.0 0.00 0.00 0.00 83 101.3
20260508080202 60 124 0.0 2.0 0.00 0.00 0.00 84 101.2
20260508075702 60 124 0.0 1.0 0.00 0.00 0.00 83 101.2
20260508075202 60 37 0.0 2.0 0.00 0.00 0.00 84 101.2
20260508074202 60 51 1.0 4.0 0.00 0.00 0.00 84 101.3
20260508073702 60 46 1.0 3.0 0.00 0.00 0.00 84 101.3
20260508073202 60 69 0.0 1.0 0.00 0.00 0.00 84 101.3
20260508072702 60 60 1.0 2.0 0.00 0.00 0.00 84 101.3
20260508072202 59 73 1.0 2.0 0.00 0.00 0.00 85 101.3
20260508071702 59 62 2.0 5.0 0.00 0.00 0.00 85 101.3
20260508071202 59 58 0.0 2.0 0.00 0.00 0.00 85 101.3
20260508070702 59 76 1.0 1.0 0.00 0.00 0.00 86 101.3
20260508070202 59 89 1.0 1.0 0.00 0.00 0.00 85 101.3
20260508065702 59 94 1.0 2.0 0.00 0.00 0.00 86 101.3
20260508065202 59 93 1.0 3.0 0.00 0.00 0.00 86 101.3
20260508064702 59 57 2.0 2.0 0.00 0.00 0.00 86 101.3
20260508064202 59 68 0.0 1.0 0.00 0.00 0.00 87 101.3
20260508063702 59 130 0.0 1.0 0.00 0.00 0.00 87 101.3
20260508063202 59 38 0.0 1.0 0.00 0.00 0.00 87 101.3
20260508062702 58 120 0.0 1.0 0.00 0.00 0.00 87 101.4
20260508062202 59 113 0.0 1.0 0.00 0.00 0.00 87 101.4
20260508061203 59 256 0.0 1.0 0.00 0.00 0.00 87 101.4
20260508060702 59 17 0.0 0.0 0.00 0.00 0.00 86 101.4
20260508060202 59 22 0.0 0.0 0.00 0.00 0.00 86 101.4
20260508055702 59 10 0.0 2.0 0.00 0.00 0.00 86 101.4
20260508055203 59 142 0.0 0.0 0.00 0.00 0.00 85 101.4
20260508054702 59 136 1.0 1.0 0.00 0.00 0.00 85 101.4
20260508054204 59 6 0.0 1.0 0.00 0.00 0.00 85 101.4
20260508053702 59 55 0.0 1.0 0.00 0.00 0.00 85 101.4
20260508053202 59 77 0.0 1.0 0.00 0.00 0.00 85 101.4
20260508052702 59 43 0.0 1.0 0.00 0.00 0.00 85 101.4
20260508052202 59 44 0.0 1.0 0.00 0.00 0.00 84 101.4
20260508051702 59 71 1.0 3.0 0.00 0.00 0.00 84 101.4
20260508051203 59 25 2.0 3.0 0.00 0.00 0.00 84 101.4
20260508050703 59 73 0.0 2.0 0.00 0.00 0.00 84 101.4
20260508045702 59 98 1.0 1.0 0.00 0.00 0.00 84 101.4
20260508044702 60 339 0.0 2.0 0.00 0.00 0.00 84 101.4
20260508044202 59 283 0.0 2.0 0.00 0.00 0.00 84 101.4
20260508043703 59 0 2.0 2.0 0.00 0.00 0.00 85 101.4
20260508043202 59 32 0.0 1.0 0.00 0.00 0.00 84 101.4
20260508042702 59 0 0.0 2.0 0.00 0.00 0.00 84 101.4
20260508042202 59 58 1.0 1.0 0.00 0.00 0.00 85 101.4
20260508041202 59 333 0.0 1.0 0.00 0.00 0.00 85 101.4
20260508040702 59 314 1.0 2.0 0.00 0.00 0.00 84 101.4
20260508040202 59 130 0.0 0.0 0.00 0.00 0.00 84 101.5
20260508035702 59 117 1.0 1.0 0.00 0.00 0.00 83 101.5
20260508035204 59 117 0.0 1.0 0.00 0.00 0.00 83 101.5
20260508034702 59 304 0.0 1.0 0.00 0.00 0.00 83 101.5
20260508033702 60 139 0.0 0.0 0.00 0.00 0.00 82 101.5
20260508033203 60 106 1.0 1.0 0.00 0.00 0.00 81 101.5
20260508032702 60 79 0.0 1.0 0.00 0.00 0.00 81 101.5
20260508032202 60 330 1.0 2.0 0.00 0.00 0.00 81 101.5
20260508031702 60 304 0.0 1.0 0.00 0.00 0.00 80 101.4
20260508031204 60 296 1.0 2.0 0.00 0.00 0.00 80 101.4
20260508030702 60 207 0.0 1.0 0.00 0.00 0.00 80 101.4
20260508030203 60 76 0.0 1.0 0.00 0.00 0.00 79 101.4
20260508025702 60 89 0.0 1.0 0.00 0.00 0.00 79 101.4
20260508024702 61 243 0.0 1.0 0.00 0.00 0.00 78 101.4
20260508024202 61 72 0.0 1.0 0.00 0.00 0.00 78 101.4
20260508023702 61 37 1.0 3.0 0.00 0.00 0.00 77 101.4
20260508022703 61 22 3.0 4.0 0.00 0.00 0.00 77 101.3
20260508022202 61 109 0.0 2.0 0.00 0.00 0.00 77 101.3
20260508021702 61 69 1.0 2.0 0.00 0.00 0.00 77 101.3
20260508021202 61 64 1.0 1.0 0.00 0.00 0.00 77 101.3
20260508020702 61 91 0.0 2.0 0.00 0.00 0.00 76 101.3
20260508015702 61 124 2.0 2.0 0.00 0.00 0.00 76 101.3
20260508015202 61 97 0.0 4.0 0.00 0.00 0.00 76 101.3
20260508014702 61 101 0.0 2.0 0.00 0.00 0.00 75 101.3
20260508014202 61 83 1.0 2.0 0.00 0.00 0.00 75 101.3
20260508013702 61 115 0.0 2.0 0.00 0.00 0.00 75 101.3
20260508013202 61 76 1.0 2.0 0.00 0.00 0.00 75 101.3
20260508012702 62 127 1.0 2.0 0.00 0.00 0.00 74 101.3
20260508012202 62 120 1.0 2.0 0.00 0.00 0.00 74 101.3
20260508011702 62 107 1.0 1.0 0.00 0.00 0.00 73 101.3
20260508011202 62 129 0.0 3.0 0.00 0.00 0.00 72 101.3
20260508010202 62 76 2.0 3.0 0.00 0.00 0.00 72 101.3
20260508005702 63 92 2.0 2.0 0.00 0.00 0.00 72 101.3
20260508005202 63 92 1.0 4.0 0.00 0.00 0.00 70 101.3
20260508004702 63 48 1.0 5.0 0.00 0.00 0.00 71 101.3
20260508004202 63 104 0.0 2.0 0.00 0.00 0.00 70 101.3
20260508003702 63 100 1.0 2.0 0.00 0.00 0.00 70 101.3
20260508003202 63 46 2.0 4.0 0.00 0.00 0.00 69 101.4
20260508002702 63 91 1.0 3.0 0.00 0.00 0.00 70 101.4
20260508002202 63 123 1.0 2.0 0.00 0.00 0.00 69 101.4
20260508001702 63 102 2.0 2.0 0.00 0.00 0.00 68 101.4
20260508001202 64 46 2.0 2.0 0.00 0.00 0.00 68 101.4
20260508000702 64 120 2.0 4.0 0.00 0.00 0.00 67 101.4
20260508000204 64 69 0.0 6.0 0.00 0.00 0.00 67 101.4
20260507235202 64 62 1.0 6.0 0.00 0.00 0.00 66 101.4
20260507234702 64 107 1.0 4.0 0.00 0.00 0.00 65 101.4
20260507234202 64 45 3.0 3.0 0.00 0.00 0.00 66 101.4
20260507233702 64 63 1.0 2.0 0.00 0.00 0.00 65 101.4
20260507233203 64 48 1.0 3.0 0.00 0.00 0.00 65 101.4
20260507232703 64 326 1.0 4.0 0.00 0.00 0.00 66 101.4
20260507232202 64 24 1.0 3.0 0.00 0.00 0.00 65 101.4
20260507231703 64 68 0.0 3.0 0.00 0.00 0.00 65 101.4
20260507231203 64 44 0.0 2.0 0.00 0.00 0.00 67 101.4
20260507230702 65 107 2.0 4.0 0.00 0.00 0.00 64 101.4
20260507230202 65 73 0.0 4.0 0.00 0.00 0.00 66 101.3
20260507225703 64 74 2.0 3.0 0.00 0.00 0.00 66 101.3
20260507225202 64 101 0.0 2.0 0.00 0.00 0.00 66 101.3
20260507224702 65 22 2.0 6.0 0.00 0.00 0.00 65 101.4
20260507224202 64 126 0.0 2.0 0.00 0.00 0.00 67 101.4
20260507223202 64 103 2.0 4.0 0.00 0.00 0.00 66 101.5
20260507222701 64 352 1.0 4.0 0.00 0.00 0.00 67 101.5
20260507221703 64 39 2.0 5.0 0.00 0.00 0.00 66 101.5
20260507221201 64 59 0.0 4.0 0.00 0.00 0.00 67 101.5